Орджоникидзевский

Россия / Республика Хакасия     54°52′16″N   88°54′29″E
темп.,
°C
ветер,
м/с
пор.,
м/с
влажн.,
%
обл.,
%
осадки,
мм/ч
давл.,
гПа
погр.,
м
8 мая, сб
сб801:00+6зюз25685 0.0 1015125
04:00+5зюз277277 0.0 1015221
07:00+6з296722 0.0 1016831
10:00+9з612565 0.0 10151577
13:00+10з713485 0.0 10141641
16:00+12з7154746 0.0 10132305
19:00+10з716616 0.1 10121824
22:00+7зсз5168298 0.6 10141645
9 мая, вс
вс901:00+6зсз298796 1.3 10141107
04:00+5ссз299295 0.3 1015749
07:00+4сз388573 0.4 1016885
10:00+4сз476999 0.1 10161290
13:00+5ссз4560100 0.2 10171198
16:00+5ссз445694 0.1 10181383
19:00+4с355544 0.1 10191312
22:000ссз227918 0.0 102223
10 мая, пн
пн1001:00+1с268478 0.0 1022554
04:000с1295100 0.1 1023203
07:00+1в128995 0.2 1023353
10:00+3вюв2368100 0.1 10241021
13:00+7в33484 0.1 10221250
16:00+9в44405 0.0 10201517
19:00+8в464953 0.0 10191536
22:00+3в310746 0.0 1021498
11 мая, вт
вт1101:00+1в23876 0.0 101958
04:000всв11945 0.0 101827
07:00+3всв128388 0.0 1017164
10:00+8в3555100 0.0 10151028
13:00+11в453996 0.0 10131569
16:00+12в323489 0.0 10112201
19:00+11всв343913 0.0 10111674
22:00+6ссз256967 0.0 1014169
12 мая, ср
ср1201:00+4сз2278100 0.0 101434
04:00+3сз119393 0.4 101419
07:00+5ссз128156 0.6 1015180
10:00+8ссв346385 0.3 10141117
13:00+9ссв3455100 1.7 10141444
16:00+10ссв3549100 1.1 10151731
19:00+9св35567 1.4 10171250
22:00+4ссз228449 0.2 102026